星链-31637 (STARLINK-31637 )

导读

STARLINK-31637是美国SpaceX公司星链星座的成员卫星,于2024年3月19日发射入轨。星链项目旨在通过低轨卫星星座为全球提供高速宽带互联网服务,尤其覆盖偏远地区。作为V2批次卫星,它服务于全球组网,扩展了星链的覆盖范围,助力实现全球无缝互联的目标,是星链迈向万颗卫星规模组网的重要组成部分。

Basic Information
目录编号:
59258
目录名称:
STARLINK-31637
国际标识:
2024-050E
轨道中心:
EARTH
卫星名称:
星链-31637
卫星全名:
星链-31637 (STARLINK-31637 )
卫星状态:
在轨 (已飞行907 天)
发射日期:
2024-03-19 UTC
国别 :
美国 (US)
星等 :
--
This satellite is enrolled in the Space Conjunction Data Service (SCDS) and the current flight risk assessment level is: No High Risk
Orbit Information
数据来源 国际轨道数据
星历时间: 2026-09-12T02:31:45+0800
7小时前
查看轨道信息
半长轴: 6840.879km
偏心率: 0.0001047
轨道倾角: 53.162°
近地点辐角 71.236°
升交点赤经 34.181°
平近点角 288.876°
近地点: 462.025km
远地点: 463.459km
周期: 93.849分钟
每日圈数: 15.343871
Detailed Information
固有亮度:
5
最大亮度:
0.3
卫星平台:
Starlink v2.0 mini
覆盖范围:
全球
运营商:
太空探索技术公司
运营商所在国:
美国
制造商(研发单位):
太空探索技术公司
制造商所在国:
美国
使用方式:
暂无
Satellite Introduction
星链(Starlink)计划是由太空探索技术公司(SpaceX)提出的一个巨型低轨卫星互联网星座项目,计划在2019年至2024年间在太空搭建由约1.2万颗卫星组成的“星链”网络,其中1584颗将部署在地球上空550千米处的近地轨道,并从2020年开始工作。该卫星仍在工作。
2D Orbit Map
3D Orbit Map
Orbit Altitude Analysis Chart
Orbit Inclination Analysis Chart
Orbit Comprehensive Analysis Chart
View Comprehensive Chart
Conjunction Data List
Event ID Objects TCA Miss Dist (km) Collision Risk Probability Collision Risk Index (CRI) Action
CDM_260912-142504-975405-925821
2026-09-12T
14:25:47+0000
1.415 km
极远距离
2.519804E-6 低风险 0.43
CDM_260912-222505-829905-925822
AETHER-2 (58299)
2026-09-12T
22:25:10+0000
2.385 km
极远距离
1.337063E-6 低风险 0.38
CDM_260912-151204-975405-925821
2026-09-12T
15:12:41+0000
2.509 km
极远距离
6.442773E-7 极低风险 0.31
CDM_260911-202805-925806-202721
2026-09-11T
20:28:00+0000
2.583 km
极远距离
4.580814E-7 极低风险 0.28
Miss Distance Evolution Trend with All Objects
Collision Probability Evolution Trend with All Objects